STARLINK-11317 [DTC] (61248 NORAD) Tracking and Keplerian Element Data

This shows tracking and keplerian element data for the satellite.

Feedback or suggestion? Click here.




ElementValue
Catalog61248
NameSTARLINK-11317 [DTC]
Epoch Orbit382
Epoch Day286.91668981
Epoch Year2024
RAAN65.3089
Inclination53.1558
Eccentricity0.0001139
Argument of Perigee107.706
Mean Anonmoly219.9599
Mean Motion15.76719486
Decay Rate0.00011079
L11 61248U 24175F 24286.91668981 .00011079 00000+0 71630-4 0 9998
L22 61248 53.1558 65.3089 0001139 107.7060 219.9599 15.76719486 3827



Live tracking and technical data element details for STARLINK-11317 [DTC] (NORAD 61248). STARLINK-11317 [DTC] can be tracked NOW for your location showing map with azimuth and elevation plus other details from your city location.







IsCatalogInMostPopularTable: catalog: 61248, numindb: 25
Update: records affected: 1



GetName: 61248 STARLINK-11317 [DTC]

Hit Count: updated at: Wed, 04 Dec 2024 12:41:42 GMT